Athens, GA

5:28 PM EDT on March 27, 2017 (GMT -0400)
Athens / Epps

Weather History for KAHN - October, 2013

Change the Weather History Date:

Thursday, October 17, 2013

  Actual Average Record
Temperature  
Mean Temperature 67 °F 62 °F  
Max Temperature 72 °F 74 °F 88 °F (1920)
Min Temperature 61 °F 51 °F 34 °F (1954)
Degree Days  
Heating Degree Days 0 4  
Month to date heating degree days 3 46  
Since 1 July heating degree days 8 56  
Cooling Degree Days 2 2  
Month to date cooling degree days 61 48  
Year to date cooling degree days 1643 1863  
Growing Degree Days 16 (Base 50)    
Moisture  
Dew Point 65 °F    
Average Humidity 91    
Maximum Humidity 100    
Minimum Humidity 81    
Precipitation  
Precipitation 0.08 in 0.11 in 2.71 in (1932)
Month to date precipitation 1.23 2.11  
Year to date precipitation 49.81 37.34  
Snow  
Snow 0.00 in 0.00 in 0.00 in (2002)
Month to date snowfall 0.0 0.0  
Since 1 July snowfall 0.0 0.0  
Since 1 September snowfall 0.0 0.0  
Snow Depth 0.00 in    
Sea Level Pressure  
Sea Level Pressure 29.93 in    
Wind  
Wind Speed 2 mph (WSW)    
Max Wind Speed 7 mph    
Max Gust Speed 10 mph    
Visibility 5 miles    
Events Rain    
T = Trace of Precipitation, MM = Missing Value Source: NWS Daily Summary

Daily Weather History Graph

Daily Weather History Graph

Search for Another Location

Airport or City:

Trip Planner

Search our weather history database for the weather conditions in past years. The results will help you decide how hot, cold, wet, or windy it might be!

Date:

Astronomy

Oct. 17, 2013 Rise Set
Actual Time 7:40 AM EDT 6:56 PM EDT
Civil Twilight 7:14 AM EDT 7:21 PM EDT
Nautical Twilight 6:45 AM EDT 7:50 PM EDT
Astronomical Twilight 6:16 AM EDT 8:19 PM EDT
Moon 6:08 PM EDT (10/17) 6:14 AM EDT (10/17)
Length of Visible Light 12h 06m
Length of Day
11h 16m
Waxing Gibbous, 98% of the Moon is Illuminated
Oct 17
Waxing Gibbous
Oct 18
Full
Oct 26
Last Quarter
Nov 3
New
Nov 10
First Quarter

Hourly Weather History & Observations

Time (EDT) Temp. Dew Point Humidity Pressure Visibility Wind Dir Wind Speed Gust Speed Precip Events Conditions
12:51 AM 63.0 °F 60.1 °F 90% 29.97 in 8.0 mi Calm Calm - N/A   Overcast
1:51 AM 63.0 °F 61.0 °F 93% 29.96 in 8.0 mi Calm Calm - 0.00 in   Overcast
2:51 AM 63.0 °F 60.1 °F 90% 29.96 in 8.0 mi Calm Calm - N/A   Overcast
3:51 AM 62.1 °F 60.1 °F 93% 29.94 in 8.0 mi Calm Calm - N/A   Scattered Clouds
4:51 AM 63.0 °F 60.1 °F 90% 29.94 in 8.0 mi Calm Calm - N/A   Overcast
5:51 AM 63.0 °F 60.1 °F 90% 29.95 in 8.0 mi Calm Calm - 0.00 in   Scattered Clouds
6:51 AM 62.1 °F 59.0 °F 90% 29.96 in 8.0 mi Calm Calm - N/A   Mostly Cloudy
7:51 AM 63.0 °F 59.0 °F 87% 29.95 in 9.0 mi Calm Calm - 0.00 in   Overcast
8:51 AM 64.0 °F 60.1 °F 87% 29.97 in 6.0 mi Calm Calm - 0.00 in   Overcast
9:51 AM 66.0 °F 61.0 °F 84% 29.97 in 7.0 mi Calm Calm - N/A   Overcast
10:51 AM 66.9 °F 63.0 °F 87% 29.96 in 7.0 mi Calm Calm - 0.00 in   Overcast
11:51 AM 68.0 °F 63.0 °F 84% 29.96 in 6.0 mi SW 4.6 mph - 0.00 in Rain Light Rain
12:06 PM 69.8 °F 64.4 °F 83% 29.97 in 7.0 mi Variable 3.5 mph - 0.00 in Rain Light Rain
12:51 PM 70.0 °F 64.0 °F 81% 29.95 in 6.0 mi WSW 3.5 mph - 0.00 in   Haze
1:51 PM 70.0 °F 66.0 °F 87% 29.93 in 7.0 mi WSW 3.5 mph - 0.00 in   Overcast
2:51 PM 71.1 °F 66.0 °F 84% 29.91 in 7.0 mi West 4.6 mph - 0.00 in   Overcast
3:39 PM 69.8 °F 66.2 °F 88% 29.92 in 1.8 mi Calm Calm - 0.01 in Rain Rain
3:49 PM 69.8 °F 68.0 °F 94% 29.91 in 1.2 mi Calm Calm - 0.04 in Rain Rain
3:51 PM 70.0 °F 68.0 °F 93% 29.90 in 1.2 mi Calm Calm - 0.05 in Rain Rain
3:56 PM 69.8 °F 68.0 °F 94% 29.91 in 1.5 mi WSW 3.5 mph - 0.01 in Rain Light Rain
4:01 PM 69.8 °F 68.0 °F 94% 29.91 in 2.0 mi SW 4.6 mph - 0.02 in Rain Light Rain
4:09 PM 69.8 °F 68.0 °F 94% 29.91 in 3.0 mi Calm Calm - 0.02 in Rain Light Rain
4:24 PM 69.8 °F 68.0 °F 94% 29.91 in 2.0 mi Calm Calm - 0.03 in Rain Light Rain
4:36 PM 69.8 °F 68.0 °F 94% 29.91 in 4.0 mi Variable 4.6 mph - 0.03 in Rain Light Rain
4:51 PM 70.0 °F 68.0 °F 93% 29.90 in 4.0 mi SSW 4.6 mph - 0.03 in Rain Light Rain
5:31 PM 69.8 °F 66.2 °F 88% 29.91 in 6.0 mi SW 3.5 mph - 0.00 in   Overcast
5:51 PM 69.1 °F 66.9 °F 93% 29.90 in 5.0 mi WSW 3.5 mph - 0.00 in   Overcast
6:18 PM 69.8 °F 66.2 °F 88% 29.91 in 5.0 mi WSW 3.5 mph - N/A   Overcast
6:51 PM 69.1 °F 66.9 °F 93% 29.90 in 4.0 mi Calm Calm - N/A   Overcast
6:59 PM 69.8 °F 66.2 °F 88% 29.91 in 4.0 mi Calm Calm - N/A   Overcast
7:51 PM 69.1 °F 66.9 °F 93% 29.91 in 5.0 mi Calm Calm - N/A   Overcast
8:15 PM 68.0 °F 66.2 °F 94% 29.93 in 3.0 mi West 3.5 mph - 0.00 in Rain Light Rain
8:23 PM 68.0 °F 66.2 °F 94% 29.93 in 2.5 mi West 4.6 mph - 0.00 in Rain Light Rain
8:25 PM 68.0 °F 66.2 °F 94% 29.93 in 3.0 mi West 3.5 mph - 0.00 in Rain Light Rain
8:42 PM 68.0 °F 66.2 °F 94% 29.93 in 5.0 mi SW 3.5 mph - 0.00 in   Overcast
8:51 PM 68.0 °F 66.9 °F 96% 29.91 in 5.0 mi SW 3.5 mph - 0.00 in   Overcast
9:06 PM 68.0 °F 66.2 °F 94% 29.93 in 5.0 mi SW 3.5 mph - N/A   Overcast
9:51 PM 66.9 °F 66.0 °F 97% 29.92 in 5.0 mi Calm Calm - N/A   Overcast
10:51 PM 66.9 °F 66.0 °F 97% 29.93 in 6.0 mi Calm Calm - N/A   Overcast
11:34 PM 66.2 °F 66.2 °F 100% 29.94 in 6.0 mi West 4.6 mph - N/A   Overcast
11:51 PM 66.9 °F 64.0 °F 90% 29.93 in 8.0 mi WNW 4.6 mph - N/A   Overcast